EW7448 Weather Reports


Display with metric or nautical units.
time (UTC)temp
F
wind
direction
speed
MPH
gust
MPH
rain 1hr
in
rain 24hr
in
rain mn
in
humidity
%
barometer
mb
20260510074558 74 22 0.0 0.0 0.00 0.04 0.00 97 1011.4
20260510073056 74 22 0.0 0.0 0.00 0.04 0.00 97 1011.5
20260510071555 73 22 0.0 0.0 0.00 0.04 0.00 97 1011.7
20260510070052 73 22 0.0 0.0 0.00 0.04 0.00 97 1011.8
20260510064551 73 23 0.0 0.0 0.00 0.04 0.00 97 1011.9
20260510063050 74 22 0.0 0.0 0.00 0.04 0.00 97 1011.9
20260510061556 73 22 0.0 0.0 0.00 0.04 0.00 96 1012.0
20260510060047 74 22 0.0 0.0 0.00 0.04 0.00 96 1012.1
20260510054543 74 22 0.0 0.0 0.00 0.04 0.00 96 1012.2
20260510053052 74 22 0.0 0.0 0.00 0.04 0.00 96 1012.4
20260510051543 74 22 0.0 0.0 0.00 0.04 0.00 96 1012.6
20260510050040 74 22 0.0 0.0 0.00 0.04 0.00 96 1012.7
20260510044539 74 22 0.0 0.0 0.00 0.04 0.00 95 1012.5
20260510043040 75 22 0.0 0.0 0.00 0.04 0.00 95 1012.6
20260510041538 75 22 0.0 0.0 0.00 0.04 0.00 95 1012.5
20260510040033 75 22 0.0 0.0 0.00 0.04 0.04 95 1012.7
20260510034534 75 22 0.0 1.0 0.00 0.04 0.04 95 1012.7
20260510033033 75 22 0.0 0.0 0.00 0.04 0.04 95 1012.7
20260510031533 75 22 0.0 1.0 0.00 0.04 0.04 94 1012.6
20260510030034 75 22 0.0 1.0 0.01 0.04 0.04 94 1012.3
20260510024534 75 22 0.0 1.0 0.01 0.04 0.04 94 1012.2
20260510023028 75 22 0.0 1.0 0.01 0.04 0.04 94 1011.9
20260510021534 75 17 0.0 2.0 0.01 0.04 0.04 94 1011.7
20260510020027 76 17 0.0 1.0 0.03 0.03 0.03 94 1011.9
20260510014527 76 17 0.0 3.0 0.03 0.03 0.03 93 1011.8
20260510013026 77 18 0.0 1.0 0.03 0.03 0.03 91 1011.6
20260510011526 79 312 0.0 1.0 0.03 0.03 0.03 89 1011.7
20260510010025 79 294 0.0 2.0 0.00 0.00 0.00 87 1011.5
20260510004525 80 329 2.0 6.0 0.00 0.00 0.00 84 1010.8
20260510003030 84 357 3.0 9.0 0.00 0.00 0.00 76 1010.4
20260510001524 83 292 1.0 4.0 0.00 0.00 0.00 84 1010.2
20260510000024 83 159 0.0 4.0 0.00 0.00 0.00 83 1009.5
20260509234534 84 122 0.0 3.0 0.00 0.00 0.00 83 1009.2
20260509233022 84 134 1.0 5.0 0.00 0.00 0.00 82 1009.1
20260509231522 85 157 0.0 4.0 0.00 0.00 0.00 80 1008.9
20260509230021 86 109 1.0 5.0 0.00 0.00 0.00 78 1008.9
20260509224521 87 149 0.0 5.0 0.00 0.00 0.00 77 1008.9
20260509223020 88 125 0.0 7.0 0.00 0.00 0.00 76 1009.0
20260509221521 89 122 1.0 6.0 0.00 0.00 0.00 73 1008.9
20260509220022 90 179 1.0 5.0 0.00 0.00 0.00 70 1008.8
20260509214523 92 45 2.0 0.0 0.00 0.00 0.00 71 1008.9
20260509213018 92 130 1.0 5.0 0.00 0.00 0.00 70 1008.8
20260509211515 93 62 1.0 5.0 0.00 0.00 0.00 67 1008.9
20260509210010 94 175 1.0 6.0 0.00 0.00 0.00 65 1008.9
20260509204507 95 124 1.0 6.0 0.00 0.00 0.00 47 1009.0
20260509203008 95 202 2.0 6.0 0.00 0.00 0.00 45 1009.1
20260509201504 95 217 1.0 6.0 0.00 0.00 0.00 46 1009.3
20260509200003 95 240 2.0 8.0 0.00 0.00 0.00 44 1009.3
20260509194503 95 240 2.0 8.0 0.00 0.00 0.00 44 1009.6
20260509193102 95 276 2.0 7.0 0.00 0.00 0.00 44 1009.7
20260509191605 95 290 2.0 6.0 0.00 0.00 0.00 44 1009.9
20260509190059 95 213 3.0 13.0 0.00 0.00 0.00 46 1010.1
20260509184640 95 259 3.0 8.0 0.00 0.00 0.00 47 1010.2
20260509183058 94 291 2.0 10.0 0.00 0.00 0.00 48 1010.2
20260509181550 94 218 3.0 8.0 0.00 0.00 0.00 49 1010.3
20260509180048 94 207 2.0 8.0 0.00 0.00 0.00 50 1010.4
20260509174548 94 259 3.0 8.0 0.00 0.00 0.00 51 1010.5
20260509173047 93 328 1.0 11.0 0.00 0.00 0.00 52 1010.6
20260509171544 93 213 1.0 7.0 0.00 0.00 0.00 55 1010.7
20260509170041 93 219 3.0 10.0 0.00 0.00 0.00 54 1010.8
20260509164538 92 240 2.0 8.0 0.00 0.00 0.00 57 1011.0
20260509163044 92 172 2.0 8.0 0.00 0.00 0.00 60 1011.2
20260509161533 91 219 3.0 9.0 0.00 0.00 0.00 61 1011.3
20260509160032 91 198 3.0 11.0 0.00 0.00 0.00 60 1011.5
20260509154534 90 198 3.0 12.0 0.00 0.00 0.00 61 1011.9
20260509153032 90 158 2.0 8.0 0.00 0.00 0.00 62 1011.9
20260509151527 89 129 1.0 9.0 0.00 0.00 0.00 66 1012.1
20260509150026 88 215 2.0 7.0 0.00 0.00 0.00 66 1012.1
20260509144521 87 214 1.0 5.0 0.00 0.00 0.00 71 1012.2
20260509143019 86 231 2.0 7.0 0.00 0.00 0.00 75 1012.0
20260509141530 84 216 4.0 9.0 0.00 0.00 0.00 78 1012.0
20260509140011 84 200 1.0 5.0 0.00 0.00 0.00 84 1012.0
20260509134508 83 148 1.0 4.0 0.00 0.00 0.00 86 1012.2
20260509133005 81 136 1.0 4.0 0.00 0.00 0.00 88 1012.3
20260509131505 80 173 1.0 4.0 0.00 0.00 0.00 90 1012.2
20260509124558 77 190 1.0 5.0 0.00 0.00 0.00 93 1011.9
20260509123057 77 205 0.0 2.0 0.00 0.00 0.00 95 1011.8
20260509121549 76 179 0.0 2.0 0.00 0.00 0.00 96 1011.6
20260509120046 75 198 0.0 2.0 0.00 0.00 0.00 97 1011.7
20260509114546 74 203 0.0 2.0 0.00 0.00 0.00 97 1011.5
20260509113104 74 201 0.0 3.0 0.00 0.00 0.00 97 1011.4
20260509111548 74 155 0.0 2.0 0.00 0.00 0.00 97 1011.2
20260509110044 74 145 0.0 1.0 0.00 0.00 0.00 97 1011.2
20260509104554 73 144 0.0 1.0 0.00 0.00 0.00 97 1011.1
20260509103052 73 139 0.0 1.0 0.00 0.00 0.00 97 1011.0
20260509101543 73 138 0.0 0.0 0.00 0.00 0.00 97 1011.0
20260509100059 73 138 0.0 1.0 0.00 0.00 0.00 97 1011.0
20260509094548 73 137 0.0 1.0 0.00 0.00 0.00 97 1010.9
20260509093043 73 138 0.0 1.0 0.00 0.00 0.00 97 1010.9
20260509091544 72 137 0.0 1.0 0.00 0.00 0.00 97 1010.9
20260509090039 72 137 0.0 0.0 0.00 0.00 0.00 97 1010.9
20260509084537 73 137 0.0 1.0 0.00 0.00 0.00 97 1011.0
20260509083043 73 19 0.0 0.0 0.00 0.00 0.00 97 1011.1
20260509081535 73 19 0.0 0.0 0.00 0.00 0.00 97 1011.2
20260509080041 73 19 0.0 1.0 0.00 0.00 0.00 97 1011.3